Weather History for Fort Lewis, WA

Change the Weather History Date:

Wednesday, November 28, 2012

  Actual Average Record
Temperature  
Mean Temperature 37 °F -  
Max Temperature 42 °F 46 °F 56 °F (2014)
Min Temperature 32 °F 34 °F 19 °F (2006)
Degree Days  
Heating Degree Days 28    
Moisture  
Dew Point 37 °F    
Average Humidity 99    
Maximum Humidity 100    
Minimum Humidity 93    
Precipitation  
Precipitation 0.05 in - - ()
Sea Level Pressure  
Sea Level Pressure 29.73 in    
Wind  
Wind Speed 3 mph (SE)    
Max Wind Speed 8 mph    
Max Gust Speed -    
Visibility 3 miles    
Events Fog    
Averages and records for this station are not official NWS values.
T = Trace of Precipitation, MM = Missing Value Source: NWS Daily Summary

Daily Weather History Graph

Daily Weather History Graph

Search for Another Location

Airport:

Trip Planner

Search our weather history database for the weather conditions in past years. The results will help you decide how hot, cold, wet, or windy it might be!

Date:

Astronomy

Nov. 28, 2012 Rise Set
Actual Time 7:32 AM PST 4:24 PM PST
Civil Twilight 6:58 AM PST 4:58 PM PST
Nautical Twilight 6:20 AM PST 5:36 PM PST
Astronomical Twilight 5:43 AM PST 6:13 PM PST
Moon 4:42 PM PST (11/28) 7:35 AM PST (11/28)
Length of Visible Light 10h 00m
Length of Day
8h 51m
Full, 100% of the Moon is Illuminated
Nov 28
Full
Dec 6
Last Quarter
Dec 13
New
Dec 19
First Quarter
Dec 28
Full

Hourly Weather History & Observations

Time (PST) Temp. Windchill Dew Point Humidity Pressure Visibility Wind Dir Wind Speed Gust Speed Precip Events Conditions
12:23 AM 35.6 °F - 33.8 °F 93% 29.88 in 10.0 mi SSE 2.3 mph - N/A   Partly Cloudy
12:38 AM 33.8 °F 29.6 °F 32.0 °F 93% 29.88 in 9.0 mi SE 4.6 mph - N/A   Mostly Cloudy
12:53 AM 33.8 °F - 32.0 °F 93% 29.87 in 10.0 mi SSE 2.3 mph - N/A   Overcast
12:58 AM 33.8 °F 28.6 °F 33.4 °F 99% 29.89 in 10.0 mi SE 5.8 mph - N/A   Overcast
1:08 AM 33.8 °F 28.6 °F 32.0 °F 93% 29.87 in 1.2 mi SSE 5.8 mph - N/A   Overcast
1:13 AM 33.8 °F 28.6 °F 33.8 °F 100% 29.87 in 0.5 mi SE 5.8 mph - N/A Fog Fog
1:18 AM 33.8 °F 28.6 °F 33.8 °F 100% 29.87 in 0.5 mi SE 5.8 mph - N/A Fog Fog
1:28 AM 33.8 °F 30.8 °F 33.8 °F 100% 29.87 in 1.0 mi SE 3.5 mph - N/A   Overcast
1:33 AM 33.8 °F 30.8 °F 33.8 °F 100% 29.86 in 1.2 mi SE 3.5 mph - N/A   Overcast
1:38 AM 35.6 °F 32.8 °F 33.8 °F 93% 29.86 in 1.0 mi ESE 3.5 mph - N/A   Overcast
1:48 AM 35.6 °F - 33.8 °F 93% 29.86 in 0.8 mi SE 2.3 mph - N/A   Mist
1:53 AM 35.6 °F - 35.6 °F 100% 29.86 in 0.5 mi SE 1.2 mph - N/A Fog Fog
1:58 AM 35.1 °F - 34.9 °F 99% 29.88 in 0.5 mi SE 2.3 mph - N/A Fog Fog
2:03 AM 35.6 °F - 35.6 °F 100% 29.85 in 0.2 mi ENE 1.2 mph - N/A Fog Fog
2:12 AM 35.6 °F - 35.6 °F 100% 29.85 in 0.2 mi SSE 2.3 mph - N/A Fog Fog
2:22 AM 33.8 °F - 33.8 °F 100% 29.85 in 0.5 mi SE 2.3 mph - N/A Fog Fog
2:32 AM 33.8 °F 30.8 °F 32.0 °F 93% 29.84 in 0.8 mi SSE 3.5 mph - N/A   Overcast
2:37 AM 32.0 °F 28.7 °F 32.0 °F 100% 29.84 in 1.0 mi SE 3.5 mph - N/A   Overcast
2:42 AM 32.0 °F - 32.0 °F 100% 29.84 in 1.5 mi SE 2.3 mph - N/A   Overcast
2:47 AM 32.0 °F - 32.0 °F 100% 29.84 in 2.0 mi SE 2.3 mph - N/A   Overcast
2:52 AM 32.0 °F 27.5 °F 32.0 °F 100% 29.84 in 2.5 mi SSE 4.6 mph - N/A   Overcast
2:57 AM 33.8 °F - 32.0 °F 93% 29.84 in 1.2 mi SSE 2.3 mph - N/A   Overcast
2:58 AM 33.6 °F - 33.3 °F 99% 29.86 in 1.2 mi SSE 2.3 mph - 0.00 in   Overcast
3:03 AM 33.8 °F 30.8 °F 33.8 °F 100% 29.84 in 0.8 mi SSE 3.5 mph - N/A   Overcast
3:13 AM 33.8 °F - 33.8 °F 100% 29.83 in 0.8 mi Calm Calm - N/A   Overcast
3:28 AM 35.6 °F - 33.8 °F 93% 29.82 in 0.8 mi East 1.2 mph - N/A   Overcast
3:33 AM 35.6 °F - 33.8 °F 93% 29.82 in 1.2 mi ENE 1.2 mph - N/A   Overcast
3:43 AM 33.8 °F - 33.8 °F 100% 29.82 in 1.0 mi Calm Calm - N/A   Overcast
3:53 AM 35.6 °F - 33.8 °F 93% 29.81 in 0.8 mi Calm Calm - N/A   Overcast
3:58 AM 34.7 °F - 34.5 °F 99% 29.83 in 0.8 mi SE 2.3 mph - N/A   Overcast
4:03 AM 33.8 °F - 33.8 °F 100% 29.81 in 1.0 mi SE 2.3 mph - N/A   Overcast
4:08 AM 33.8 °F - 33.8 °F 100% 29.80 in 1.2 mi Calm Calm - N/A   Overcast
4:13 AM 33.8 °F 30.8 °F 33.8 °F 100% 29.79 in 1.8 mi NE 3.5 mph - N/A   Overcast
4:18 AM 33.8 °F - 33.8 °F 100% 29.79 in 1.2 mi North 2.3 mph - N/A   Overcast
4:23 AM 33.8 °F - 33.8 °F 100% 29.79 in 1.0 mi North 1.2 mph - N/A   Overcast
4:28 AM 35.6 °F - 33.8 °F 93% 29.79 in 0.8 mi Calm Calm - N/A   Overcast
4:33 AM 35.6 °F - 33.8 °F 93% 29.79 in 0.5 mi Calm Calm - N/A Fog Fog
4:53 AM 35.6 °F - 33.8 °F 93% 29.79 in 0.8 mi ESE 1.2 mph - N/A   Mist
4:58 AM 34.9 °F - 34.7 °F 99% 29.80 in 0.8 mi Calm Calm - N/A   Overcast
5:03 AM 35.6 °F - 33.8 °F 93% 29.78 in 0.5 mi Calm Calm - N/A Fog Fog
5:08 AM 35.6 °F - 33.8 °F 93% 29.78 in 0.5 mi Calm Calm - N/A Fog Fog
5:43 AM 35.6 °F - 35.6 °F 100% 29.77 in 0.5 mi East 1.2 mph - N/A Fog Fog
5:53 AM 35.6 °F - 35.6 °F 100% 29.77 in 0.8 mi Calm Calm - N/A   Overcast
5:58 AM 35.2 °F - 35.1 °F 99% 29.79 in 0.8 mi Calm Calm - N/A   Overcast
6:03 AM 33.8 °F - 33.8 °F 100% 29.77 in 0.8 mi SSE 2.3 mph - N/A   Overcast
6:08 AM 33.8 °F 30.8 °F 33.8 °F 100% 29.77 in 0.8 mi SE 3.5 mph - N/A   Overcast
6:23 AM 33.8 °F 28.6 °F 33.8 °F 100% 29.77 in 0.5 mi SE 5.8 mph - N/A Fog Fog
6:28 AM 33.8 °F 28.6 °F 33.8 °F 100% 29.77 in 0.8 mi SE 5.8 mph - N/A   Mist
6:33 AM 33.8 °F 27.7 °F 33.8 °F 100% 29.76 in 0.8 mi SE 6.9 mph - N/A   Mist
6:38 AM 33.8 °F 30.8 °F 33.8 °F 100% 29.76 in 1.0 mi South 3.5 mph - N/A   Mist
6:43 AM 33.8 °F - 33.8 °F 100% 29.76 in 0.8 mi SE 2.3 mph - N/A   Mist
6:48 AM 35.6 °F - 33.8 °F 93% 29.75 in 0.5 mi ESE 1.2 mph - N/A Fog Fog
6:58 AM 35.1 °F 32.2 °F 34.9 °F 99% 29.77 in 0.5 mi SE 3.5 mph - N/A Fog Fog
7:03 AM 35.6 °F 31.7 °F 35.6 °F 100% 29.74 in 0.2 mi SE 4.6 mph - N/A Fog Fog
7:13 AM 35.6 °F - 35.6 °F 100% 29.74 in 0.5 mi East 2.3 mph - N/A Fog Fog
7:18 AM 35.6 °F 32.8 °F 35.6 °F 100% 29.73 in 0.5 mi East 3.5 mph - N/A Fog Fog
7:23 AM 35.6 °F - 35.6 °F 100% 29.73 in 0.8 mi Calm Calm - N/A   Mist
7:28 AM 35.6 °F - 35.6 °F 100% 29.72 in 0.5 mi North 2.3 mph - N/A Fog Fog
7:38 AM 35.6 °F - 35.6 °F 100% 29.73 in 1.0 mi East 2.3 mph - N/A   Overcast
7:43 AM 35.6 °F 32.8 °F 35.6 °F 100% 29.72 in 2.0 mi East 3.5 mph - N/A   Overcast
7:50 AM 35.6 °F - 35.6 °F 100% 29.73 in 0.5 mi SSE 2.3 mph - N/A   Overcast
8:14 AM 35.6 °F 31.7 °F 35.6 °F 100% 29.73 in 1.0 mi SSE 4.6 mph - N/A   Overcast
8:44 AM 35.6 °F - 35.6 °F 100% 29.70 in 2.0 mi Variable 1.2 mph - N/A   Overcast
8:55 AM 37.4 °F - 37.4 °F 100% 29.71 in 2.0 mi Calm Calm - N/A   Overcast
9:34 AM 37.4 °F 34.9 °F 37.4 °F 100% 29.69 in 10.0 mi South 3.5 mph - N/A   Overcast
9:58 AM 38.3 °F 32.5 °F 37.9 °F 99% 29.73 in 10.0 mi South 8.1 mph - N/A   Overcast
10:37 AM 39.2 °F - 39.2 °F 100% 29.66 in 10.0 mi NNE 2.3 mph - N/A   Light Drizzle
10:53 AM 39.2 °F - 39.2 °F 100% 29.66 in 10.0 mi Calm Calm - N/A   Overcast
10:58 AM 39.7 °F - 39.6 °F 99% 29.68 in 10.0 mi Calm Calm - 0.00 in   Overcast
11:44 AM 39.2 °F 35.9 °F 39.2 °F 100% 29.64 in 10.0 mi SSE 4.6 mph - N/A   Light Drizzle
11:48 AM 39.2 °F 35.0 °F 39.2 °F 100% 29.64 in 10.0 mi SSE 5.8 mph - N/A   Light Drizzle
11:49 AM 39.2 °F 35.9 °F 39.2 °F 100% 29.64 in 10.0 mi SSE 4.6 mph - N/A   Light Drizzle
11:55 AM 39.2 °F 37.0 °F 39.2 °F 100% 29.64 in 10.0 mi SSE 3.5 mph - N/A   Mostly Cloudy
11:56 AM 39.2 °F 37.0 °F 39.2 °F 100% 29.66 in 10.0 mi SSE 3.5 mph - N/A   Light Drizzle
11:57 AM 39.2 °F - 39.2 °F 100% 29.64 in 10.0 mi South 2.3 mph - N/A   Mostly Cloudy
12:02 PM 39.2 °F - 39.2 °F 100% 29.63 in 10.0 mi SSE 2.3 mph - N/A   Mostly Cloudy
12:07 PM 39.2 °F - 39.2 °F 100% 29.63 in 10.0 mi South 2.3 mph - N/A   Mostly Cloudy
12:42 PM 39.2 °F 35.9 °F 39.2 °F 100% 29.64 in 10.0 mi SSE 4.6 mph - N/A   Overcast
12:47 PM 41.0 °F - 39.2 °F 93% 29.64 in 9.0 mi South 2.3 mph - N/A   Light Drizzle
12:57 PM 41.0 °F - 39.2 °F 93% 29.64 in 6.0 mi SSE 2.3 mph - N/A   Light Drizzle
12:58 PM 40.1 °F - 39.9 °F 99% 29.66 in 6.0 mi South 1.2 mph - 0.01 in   Light Drizzle
1:02 PM 41.0 °F - 39.2 °F 93% 29.63 in 6.0 mi Calm Calm - N/A   Light Drizzle
1:37 PM 41.0 °F - 41.0 °F 100% 29.62 in 10.0 mi Calm Calm - N/A   Overcast
1:53 PM 41.0 °F - 41.0 °F 100% 29.61 in 9.0 mi NNE 2.3 mph - N/A   Light Drizzle
1:58 PM 41.2 °F 39.2 °F 41.0 °F 99% 29.63 in 8.0 mi NNE 3.5 mph - 0.02 in   Light Drizzle
2:06 PM 41.0 °F 39.0 °F 41.0 °F 100% 29.60 in 9.0 mi NNE 3.5 mph - N/A   Mostly Cloudy
2:16 PM 41.0 °F 39.0 °F 41.0 °F 100% 29.59 in 10.0 mi NNE 3.5 mph - N/A   Scattered Clouds
2:24 PM 41.0 °F 39.0 °F 41.0 °F 100% 29.59 in 10.0 mi North 3.5 mph - N/A   Scattered Clouds
2:42 PM 42.8 °F 41.1 °F 41.0 °F 93% 29.59 in 10.0 mi North 3.5 mph - N/A   Partly Cloudy
2:58 PM 42.3 °F 40.5 °F 42.1 °F 99% 29.61 in 9.0 mi NW 3.5 mph - 0.01 in   Light Drizzle
3:06 PM 42.8 °F 41.1 °F 42.8 °F 100% 29.60 in 10.0 mi West 3.5 mph - N/A   Scattered Clouds
3:26 PM 42.8 °F 39.3 °F 42.8 °F 100% 29.62 in 3.0 mi West 5.8 mph - N/A   Overcast
3:58 PM 42.8 °F - 42.4 °F 99% 29.64 in 3.0 mi West 2.3 mph - 0.01 in   Overcast
4:28 PM 42.8 °F - 42.8 °F 100% 29.62 in 9.0 mi SSE 2.3 mph - N/A   Overcast
4:53 PM 42.8 °F - 42.8 °F 100% 29.63 in 5.0 mi South 2.3 mph - N/A   Overcast
4:58 PM 42.4 °F 40.7 °F 42.1 °F 99% 29.65 in 5.0 mi SSE 3.5 mph - N/A   Overcast
5:13 PM 42.8 °F 41.1 °F 41.0 °F 93% 29.64 in 5.0 mi SW 3.5 mph - N/A   Overcast
5:58 PM 41.7 °F - 41.4 °F 99% 29.67 in 5.0 mi Calm Calm - N/A   Overcast
6:18 PM 41.0 °F - 41.0 °F 100% 29.66 in 6.0 mi Calm Calm - N/A   Overcast
6:38 PM 41.0 °F 39.0 °F 41.0 °F 100% 29.66 in 5.0 mi ESE 3.5 mph - N/A   Overcast
6:43 PM 41.0 °F 39.0 °F 41.0 °F 100% 29.66 in 2.5 mi ESE 3.5 mph - N/A   Overcast
6:48 PM 41.0 °F - 41.0 °F 100% 29.66 in 1.0 mi SE 2.3 mph - N/A   Overcast
6:53 PM 41.0 °F - 41.0 °F 100% 29.66 in 0.8 mi South 2.3 mph - N/A   Overcast
6:58 PM 41.2 °F 39.2 °F 41.0 °F 99% 29.68 in 0.8 mi SSE 3.5 mph - N/A   Overcast
7:03 PM 41.0 °F 38.0 °F 41.0 °F 100% 29.66 in 0.5 mi SE 4.6 mph - N/A Fog Fog
7:08 PM 41.0 °F 38.0 °F 41.0 °F 100% 29.67 in 0.5 mi SE 4.6 mph - N/A Fog Fog
7:13 PM 41.0 °F 38.0 °F 41.0 °F 100% 29.67 in 0.5 mi ESE 4.6 mph - N/A Fog Fog
7:28 PM 41.0 °F - 41.0 °F 100% 29.67 in 1.0 mi East 2.3 mph - N/A   Mist
7:33 PM 41.0 °F - 41.0 °F 100% 29.67 in 3.0 mi East 2.3 mph - N/A   Overcast
7:43 PM 41.0 °F - 41.0 °F 100% 29.67 in 10.0 mi Calm Calm - N/A   Overcast
7:58 PM 40.5 °F - 40.3 °F 99% 29.70 in 7.0 mi North 2.3 mph - N/A   Mostly Cloudy
8:28 PM 39.2 °F - 39.2 °F 100% 29.69 in 1.5 mi Calm Calm - N/A   Mostly Cloudy
8:33 PM 39.2 °F - 39.2 °F 100% 29.69 in 0.8 mi Calm Calm - N/A   Scattered Clouds
8:38 PM 39.2 °F - 39.2 °F 100% 29.69 in 0.2 mi ESE 1.2 mph - N/A Fog Fog
8:43 PM 39.2 °F - 39.2 °F 100% 29.70 in 0.2 mi Calm Calm - N/A Fog Fog
8:46 PM 37.4 °F - 37.4 °F 100% 29.70 in 0.2 mi Calm Calm - N/A Fog Fog
8:51 PM 39.2 °F - 37.4 °F 93% 29.70 in 0.2 mi Calm Calm - N/A Fog Fog
8:56 PM 39.2 °F - 39.2 °F 100% 29.70 in 0.2 mi NE 2.3 mph - N/A Fog Fog
8:58 PM 38.7 °F - 38.5 °F 99% 29.72 in 0.2 mi ENE 2.3 mph - N/A Fog Fog
8:59 PM 39.2 °F - 39.2 °F 100% 29.70 in 0.2 mi ENE 2.3 mph - N/A Fog Fog
9:04 PM 37.4 °F - 37.4 °F 100% 29.70 in 0.2 mi ESE 1.2 mph - N/A Fog Fog
9:23 PM 37.4 °F - 37.4 °F 100% 29.70 in 0.2 mi NE 2.3 mph - N/A Fog Fog
9:28 PM 37.4 °F - 37.4 °F 100% 29.70 in 0.5 mi NE 1.2 mph - N/A Fog Fog
9:43 PM 37.4 °F - 37.4 °F 100% 29.70 in 0.5 mi Calm Calm - N/A Fog Fog
9:58 PM 36.7 °F - 36.5 °F 99% 29.72 in 0.5 mi Calm Calm - 0.00 in Fog Fog
10:08 PM 37.4 °F - 37.4 °F 100% 29.71 in 0.8 mi Calm Calm - N/A   Partly Cloudy
10:23 PM 35.6 °F - 35.6 °F 100% 29.71 in 0.8 mi Calm Calm - N/A   Partly Cloudy
10:28 PM 37.4 °F - 35.6 °F 93% 29.71 in 1.5 mi Calm Calm - N/A   Partly Cloudy
10:33 PM 37.4 °F - 37.4 °F 100% 29.71 in 4.0 mi NE 1.2 mph - N/A   Scattered Clouds
10:43 PM 37.4 °F 34.9 °F 37.4 °F 100% 29.71 in 2.0 mi NE 3.5 mph - N/A   Mostly Cloudy
10:48 PM 37.4 °F 34.9 °F 37.4 °F 100% 29.71 in 1.5 mi NE 3.5 mph - N/A   Mostly Cloudy
10:53 PM 37.4 °F 33.8 °F 37.4 °F 100% 29.71 in 3.0 mi NE 4.6 mph - N/A   Overcast
10:58 PM 37.8 °F - 37.4 °F 99% 29.73 in 10.0 mi Calm Calm - N/A   Overcast
11:58 PM 38.3 °F 35.9 °F 38.1 °F 99% 29.72 in 8.0 mi SE 3.5 mph - N/A   Clear